Location: Wildcat Hills Observatory
(41.6350°N, 103.6812°W)
Time: 11:57:59
(UTC-06:00)

Cosmos 921 Rocket - Pass Details

Date: 23 June 2018
Orbit: 573 x 631 km, 75.8° (Epoch: 22 September)

Event Time Altitude Azimuth Distance (km) Brightness Sun altitude
Rises 21:02:44 0° 351° (N) 2,908 7.3 -5.4°
Reaches altitude 10° 21:05:09 10° 1° (N) 2,005 6.3 -5.7°
Maximum altitude 21:09:15 34° 67° (ENE) 1,036 4.0 -6.3°
Drops below altitude 10° 21:13:21 10° 133° (SE) 2,006 5.0 -6.9°
Enters shadow 21:13:41 - 134° (SE) 2,126 5.1 -6.9°
